FW5461 Weather Reports


Display with metric or nautical units.
time (UTC)temp
F
wind
direction
speed
MPH
gust
MPH
rain 1hr
in
rain 24hr
in
rain mn
in
humidity
%
barometer
mb
20260901112532 66 107 0.0 2.0 0.00 0.01 0.01 93 1018.5
20260901112031 66 107 0.0 2.0 0.00 0.01 0.01 93 1018.6
20260901111532 66 109 0.0 0.0 0.00 0.01 0.01 93 1018.7
20260901111033 66 109 0.0 1.0 0.00 0.01 0.01 93 1018.8
20260901110530 66 109 0.0 2.0 0.00 0.01 0.01 93 1018.6
20260901110030 66 110 0.0 2.0 0.00 0.01 0.01 93 1018.5
20260901105531 66 142 0.0 1.0 0.00 0.01 0.01 93 1018.5
20260901105033 66 144 0.0 1.0 0.00 0.01 0.01 93 1018.3
20260901104532 66 147 0.0 1.0 0.00 0.01 0.01 92 1018.4
20260901104030 66 148 0.0 0.0 0.00 0.01 0.01 92 1018.4
20260901103529 66 148 0.0 2.0 0.01 0.01 0.01 92 1018.4
20260901103029 66 148 0.0 2.0 0.01 0.01 0.01 92 1018.3
20260901102529 66 150 0.0 2.0 0.01 0.01 0.01 92 1018.2
20260901102029 66 152 0.0 1.0 0.01 0.01 0.01 92 1018.2
20260901101531 66 155 0.0 0.0 0.01 0.01 0.01 92 1018.1
20260901101029 66 155 0.0 1.0 0.01 0.01 0.01 92 1018.2
20260901100531 66 155 0.0 1.0 0.01 0.01 0.01 92 1018.1
20260901100029 66 155 0.0 0.0 0.01 0.01 0.01 92 1018.1
20260901095528 66 155 0.0 0.0 0.01 0.01 0.01 92 1018.0
20260901095028 66 155 0.0 0.0 0.01 0.01 0.01 92 1018.1
20260901094537 66 155 0.0 1.0 0.01 0.01 0.01 91 1018.0
20260901094027 66 155 0.0 1.0 0.01 0.01 0.01 91 1018.2
20260901093526 66 157 0.0 1.0 0.00 0.00 0.00 91 1018.2
20260901093028 66 159 0.0 0.0 0.00 0.00 0.00 91 1018.2
20260901092525 66 159 0.0 0.0 0.00 0.00 0.00 91 1018.4
20260901092031 66 159 0.0 0.0 0.00 0.00 0.00 91 1018.4
20260901091524 66 160 0.0 0.0 0.00 0.00 0.00 91 1018.6
20260901091024 66 160 0.0 0.0 0.00 0.00 0.00 91 1018.6
20260901090523 66 160 0.0 0.0 0.00 0.00 0.00 91 1018.6
20260901090023 66 160 0.0 0.0 0.00 0.00 0.00 91 1018.6
20260901085525 66 160 0.0 0.0 0.00 0.00 0.00 90 1018.6
20260901085022 66 161 0.0 0.0 0.00 0.00 0.00 90 1018.6
20260901084522 66 161 0.0 0.0 0.00 0.00 0.00 90 1018.6
20260901084024 66 161 0.0 0.0 0.00 0.00 0.00 90 1018.6
20260901083522 66 161 0.0 0.0 0.00 0.00 0.00 90 1018.7
20260901083022 66 161 0.0 0.0 0.00 0.00 0.00 90 1018.7
20260901082522 66 161 0.0 0.0 0.00 0.00 0.00 90 1018.7
20260901082020 66 161 0.0 0.0 0.00 0.00 0.00 90 1018.7
20260901081520 66 162 0.0 0.0 0.00 0.00 0.00 89 1018.7
20260901081020 66 162 0.0 0.0 0.00 0.00 0.00 89 1018.8
20260901080519 66 163 0.0 0.0 0.00 0.00 0.00 89 1018.8
20260901080023 66 163 0.0 0.0 0.00 0.00 0.00 89 1018.9
20260901075519 66 163 0.0 0.0 0.00 0.00 0.00 89 1019.0
20260901075022 66 163 0.0 0.0 0.00 0.00 0.00 89 1018.9
20260901074520 66 163 0.0 0.0 0.00 0.00 0.00 89 1018.9
20260901074018 66 163 0.0 0.0 0.00 0.00 0.00 89 1018.9
20260901073518 66 163 0.0 1.0 0.00 0.00 0.00 88 1019.0
20260901073020 66 163 0.0 1.0 0.00 0.00 0.00 88 1019.0
20260901072519 66 163 0.0 1.0 0.00 0.00 0.00 88 1018.9
20260901072015 66 168 0.0 1.0 0.00 0.00 0.00 88 1019.0
20260901071516 66 169 0.0 0.0 0.00 0.00 0.00 88 1019.1
20260901071017 66 170 0.0 0.0 0.00 0.00 0.00 88 1019.2
20260901070514 66 170 0.0 0.0 0.00 0.00 0.00 88 1019.3
20260901070014 66 171 0.0 0.0 0.00 0.00 0.00 88 1019.3
20260901065514 66 171 0.0 0.0 0.00 0.00 0.00 88 1019.3
20260901065014 66 171 0.0 0.0 0.00 0.00 0.00 87 1019.5
20260901064518 66 171 0.0 0.0 0.00 0.00 0.00 87 1019.5
20260901064014 66 170 0.0 0.0 0.00 0.00 0.00 87 1019.4
20260901063513 66 170 0.0 0.0 0.00 0.00 0.00 87 1019.4
20260901063020 66 170 0.0 0.0 0.00 0.00 0.00 87 1019.5
20260901062513 66 170 0.0 1.0 0.00 0.00 0.00 87 1019.6
20260901062013 66 171 0.0 1.0 0.00 0.00 0.00 87 1019.6
20260901061512 66 170 0.0 0.0 0.00 0.00 0.00 86 1019.5
20260901061011 67 170 0.0 2.0 0.00 0.00 0.00 86 1019.5
20260901060514 67 170 0.0 2.0 0.00 0.00 0.00 86 1019.4
20260901060010 67 168 0.0 1.0 0.00 0.00 0.00 86 1019.4
20260901055510 67 167 0.0 2.0 0.00 0.00 0.00 86 1019.3
20260901055009 67 167 0.0 5.0 0.00 0.00 0.00 85 1019.2
20260901054508 67 167 1.0 5.0 0.00 0.00 0.00 85 1019.4
20260901054007 67 168 2.0 5.0 0.00 0.00 0.00 85 1019.6
20260901053506 67 169 1.0 6.0 0.00 0.00 0.00 84 1019.8
20260901053006 67 166 2.0 6.0 0.00 0.00 0.00 84 1019.9
20260901052504 67 157 1.0 8.0 0.00 0.00 0.00 84 1019.9
20260901052004 67 150 3.0 8.0 0.00 0.00 0.00 83 1020.0
20260901051504 68 179 3.0 6.0 0.00 0.00 0.00 83 1020.0
20260901051003 68 180 1.0 6.0 0.00 0.00 0.00 83 1020.0
20260901050503 68 184 2.0 8.0 0.00 0.00 0.00 82 1020.1
20260901050003 68 152 1.0 9.0 0.00 0.00 0.00 82 1020.0
20260901045601 68 157 4.0 9.0 0.00 0.00 0.00 82 1020.1
20260901045100 68 141 3.0 7.0 0.00 0.00 0.00 81 1020.0
20260901044608 68 171 2.0 7.0 0.00 0.00 0.00 81 1019.9
20260901044103 68 163 2.0 5.0 0.00 0.00 0.00 81 1019.9
20260901043600 68 161 0.0 3.0 0.00 0.00 0.00 81 1019.9
20260901043059 68 159 0.0 3.0 0.00 0.00 0.00 80 1019.8
20260901042558 68 159 0.0 3.0 0.00 0.00 0.00 80 1019.9
20260901042058 68 158 0.0 2.0 0.00 0.00 0.00 80 1020.1
20260901041604 68 157 0.0 3.0 0.00 0.00 0.00 80 1020.0
20260901041059 68 157 0.0 5.0 0.00 0.00 0.00 80 1020.0
20260901040557 69 156 1.0 5.0 0.00 0.00 0.00 80 1020.1
20260901040055 69 153 0.0 2.0 0.00 0.00 0.00 80 1020.0
20260901035555 69 153 0.0 2.0 0.00 0.01 0.00 80 1020.1
20260901035055 69 153 0.0 6.0 0.00 0.01 0.00 80 1020.1
20260901034554 69 153 1.0 7.0 0.00 0.01 0.00 80 1020.0
20260901034054 69 150 2.0 7.0 0.00 0.01 0.00 80 1020.0
20260901033554 69 140 0.0 4.0 0.00 0.01 0.00 80 1020.2
20260901033115 69 137 0.0 4.0 0.00 0.01 0.00 80 1020.3
20260901032557 69 134 0.0 5.0 0.00 0.01 0.00 80 1020.1
20260901032054 69 153 1.0 5.0 0.00 0.01 0.00 80 1020.1
20260901031554 69 180 0.0 2.0 0.00 0.01 0.00 80 1020.3
20260901031054 69 180 0.0 2.0 0.00 0.01 0.00 80 1020.2
20260901030553 69 180 0.0 2.0 0.00 0.01 0.00 80 1020.1
20260901030101 69 181 0.0 3.0 0.00 0.01 0.00 80 1020.3
20260901025553 69 181 0.0 3.0 0.00 0.01 0.00 80 1020.3
20260901025053 69 182 0.0 3.0 0.00 0.01 0.00 80 1020.2
20260901024553 69 182 0.0 3.0 0.00 0.01 0.00 80 1020.3
20260901024052 69 182 0.0 4.0 0.00 0.01 0.00 80 1020.3
20260901023552 69 182 1.0 4.0 0.00 0.01 0.00 80 1020.3
20260901023052 69 186 1.0 4.0 0.00 0.01 0.00 80 1020.3
20260901022552 69 184 0.0 4.0 0.00 0.01 0.00 80 1020.3
20260901022052 69 183 1.0 4.0 0.00 0.01 0.00 80 1020.3
20260901021602 69 182 0.0 4.0 0.00 0.01 0.00 80 1020.1
20260901021052 69 181 1.0 4.0 0.00 0.01 0.00 80 1020.2
20260901020552 69 180 0.0 5.0 0.00 0.01 0.00 80 1020.2
20260901020051 69 180 0.0 5.0 0.00 0.01 0.00 80 1020.1
20260901015552 69 188 1.0 4.0 0.00 0.02 0.00 80 1020.1
20260901015051 69 190 0.0 3.0 0.00 0.02 0.00 81 1020.0
20260901014551 69 192 0.0 3.0 0.00 0.02 0.00 81 1020.0
20260901014051 69 192 0.0 3.0 0.00 0.02 0.00 82 1020.0
20260901013551 69 193 0.0 1.0 0.00 0.02 0.00 83 1020.0
20260901013059 69 193 0.0 1.0 0.00 0.02 0.00 83 1020.1
20260901012550 69 193 0.0 0.0 0.00 0.02 0.00 83 1020.2
20260901012050 69 193 0.0 0.0 0.00 0.02 0.00 83 1020.2
20260901011610 69 193 0.0 1.0 0.00 0.02 0.00 83 1020.3
20260901011050 69 193 0.0 1.0 0.00 0.02 0.00 83 1020.3
20260901010551 69 193 0.0 1.0 0.00 0.02 0.00 83 1020.2
20260901010051 69 193 0.0 1.0 0.00 0.02 0.00 83 1020.4
20260901005550 69 193 0.0 1.0 0.00 0.03 0.00 83 1020.3
20260901005051 69 193 0.0 0.0 0.00 0.03 0.00 83 1020.3
20260901004549 69 193 0.0 0.0 0.00 0.03 0.00 83 1020.3
20260901004049 69 193 0.0 0.0 0.00 0.03 0.00 83 1020.3
20260901003555 69 193 0.0 1.0 0.00 0.03 0.00 83 1020.2
20260901003050 70 193 0.0 1.0 0.00 0.03 0.00 83 1020.1
20260901002553 70 192 0.0 3.0 0.00 0.03 0.00 82 1020.0
20260901002048 70 192 0.0 3.0 0.00 0.03 0.00 82 1020.0
20260901001549 70 191 2.0 4.0 0.00 0.03 0.00 82 1020.0
20260901001048 70 193 1.0 4.0 0.00 0.03 0.00 82 1019.9
20260901000547 70 226 0.0 2.0 0.00 0.03 0.00 81 1019.9
20260901000047 70 227 0.0 0.0 0.00 0.03 0.00 81 1019.9
20260831235547 70 227 0.0 1.0 0.00 0.03 0.00 81 1020.0
20260831235047 70 227 0.0 3.0 0.00 0.03 0.00 81 1019.9
20260831234556 70 226 1.0 3.0 0.00 0.03 0.00 81 1020.0
20260831234046 70 222 0.0 2.0 0.00 0.03 0.00 80 1019.9
20260831233546 71 222 0.0 2.0 0.00 0.03 0.00 80 1020.0
20260831233047 71 222 0.0 0.0 0.00 0.03 0.00 80 1020.0
20260831232546 71 221 0.0 0.0 0.00 0.03 0.00 80 1020.1
20260831232049 71 221 0.0 1.0 0.00 0.03 0.00 79 1020.2
20260831231546 72 220 0.0 1.0 0.00 0.03 0.00 79 1020.3
20260831231046 72 220 0.0 2.0 0.00 0.03 0.00 79 1020.2
20260831230550 72 220 0.0 2.0 0.00 0.03 0.00 78 1020.2
20260831230045 72 219 0.0 1.0 0.00 0.03 0.00 77 1020.3
20260831225549 72 219 0.0 1.0 0.00 0.03 0.00 77 1020.3
20260831225045 72 219 0.0 1.0 0.00 0.03 0.00 77 1020.3
20260831224547 72 219 0.0 1.0 0.00 0.03 0.00 77 1020.2
20260831224049 72 219 0.0 3.0 0.00 0.03 0.00 78 1020.4
20260831223547 73 219 0.0 3.0 0.00 0.03 0.00 77 1020.4
20260831223048 73 221 1.0 4.0 0.00 0.03 0.00 77 1020.6
20260831222545 73 221 1.0 4.0 0.00 0.03 0.00 76 1020.6
20260831222044 73 198 0.0 0.0 0.00 0.03 0.00 75 1020.5
20260831221600 73 360 0.0 0.0 0.00 0.03 0.00 74 1020.5
20260831221044 74 360 0.0 0.0 0.00 0.03 0.00 74 1020.5
20260831220543 74 360 0.0 0.0 0.00 0.03 0.00 74 1020.4
20260831220043 74 360 0.0 0.0 0.00 0.03 0.00 73 1020.4
20260831215544 74 360 0.0 0.0 0.00 0.03 0.00 72 1020.4
20260831215043 75 360 0.0 0.0 0.00 0.03 0.00 71 1020.5
20260831214551 75 360 0.0 0.0 0.00 0.03 0.00 70 1020.5
20260831214042 75 360 0.0 0.0 0.00 0.03 0.00 70 1020.5
20260831213542 75 360 0.0 0.0 0.00 0.03 0.00 69 1020.5
20260831213043 75 360 0.0 0.0 0.00 0.03 0.00 68 1020.4
20260831212542 75 188 0.0 0.0 0.00 0.03 0.00 68 1020.3
20260831212042 75 186 0.0 0.0 0.00 0.03 0.00 68 1020.3
20260831211547 75 186 0.0 0.0 0.00 0.03 0.00 67 1020.4
20260831211042 75 185 0.0 1.0 0.00 0.03 0.00 66 1020.4
20260831210541 75 185 0.0 1.0 0.00 0.03 0.00 65 1020.4
20260831210042 75 185 0.0 2.0 0.00 0.03 0.00 65 1020.4
20260831205545 75 184 0.0 2.0 0.00 0.03 0.00 64 1020.3
20260831205041 75 184 0.0 2.0 0.00 0.03 0.00 64 1020.4
20260831204544 76 185 0.0 2.0 0.00 0.03 0.00 64 1020.3
20260831204041 76 186 0.0 2.0 0.00 0.03 0.00 63 1020.4
20260831203540 76 186 0.0 3.0 0.00 0.03 0.00 63 1020.4
20260831203048 76 185 1.0 3.0 0.00 0.03 0.00 63 1020.4
20260831202540 76 186 0.0 2.0 0.00 0.03 0.00 62 1020.5
20260831202043 76 187 0.0 3.0 0.00 0.03 0.00 62 1020.4
20260831201547 76 188 0.0 3.0 0.00 0.03 0.00 62 1020.5
20260831201040 77 189 0.0 3.0 0.00 0.03 0.00 61 1020.4
20260831200539 77 192 0.0 3.0 0.00 0.03 0.00 61 1020.6
20260831200045 77 192 0.0 3.0 0.00 0.03 0.00 61 1020.7
20260831195538 77 192 0.0 4.0 0.00 0.03 0.00 62 1020.8
20260831195038 77 193 1.0 4.0 0.00 0.03 0.00 61 1020.8
20260831194541 77 190 1.0 4.0 0.00 0.03 0.00 61 1021.0
20260831194038 77 188 1.0 4.0 0.00 0.03 0.00 62 1020.8
20260831193539 76 188 0.0 4.0 0.00 0.03 0.00 62 1020.9
20260831193039 76 190 2.0 4.0 0.00 0.03 0.00 62 1021.0
20260831192537 76 360 0.0 3.0 0.00 0.03 0.00 62 1021.2
20260831192038 77 360 0.0 4.0 0.00 0.03 0.00 62 1020.9
20260831191538 77 360 0.0 4.0 0.00 0.03 0.00 61 1020.8
20260831191037 77 133 2.0 4.0 0.00 0.03 0.00 61 1020.8
20260831190537 77 126 2.0 6.0 0.00 0.03 0.00 60 1021.1
20260831190049 77 158 2.0 6.0 0.00 0.03 0.00 59 1021.1
20260831185536 78 120 2.0 5.0 0.00 0.03 0.00 60 1021.3
20260831185037 77 360 0.0 6.0 0.00 0.03 0.00 60 1021.3
20260831184537 77 360 1.0 6.0 0.00 0.03 0.00 61 1021.3
20260831184036 77 178 2.0 4.0 0.00 0.03 0.00 61 1021.4
20260831183536 77 186 1.0 6.0 0.00 0.03 0.00 61 1021.3
20260831183040 77 177 2.0 6.0 0.00 0.03 0.00 61 1021.4
20260831182537 77 171 3.0 6.0 0.00 0.03 0.00 60 1021.4
20260831182035 77 188 1.0 4.0 0.00 0.03 0.00 60 1021.7
20260831181535 77 175 1.0 4.0 0.00 0.03 0.00 60 1021.7
20260831181034 77 173 2.0 4.0 0.00 0.03 0.00 59 1021.6
20260831180535 77 175 1.0 5.0 0.00 0.03 0.00 59 1021.6
20260831180034 77 186 1.0 7.0 0.00 0.03 0.00 59 1021.5
20260831175536 77 185 3.0 7.0 0.00 0.03 0.00 58 1021.5
20260831175036 78 166 1.0 5.0 0.00 0.03 0.00 57 1021.5
20260831174532 78 144 1.0 4.0 0.00 0.03 0.00 56 1021.6
20260831174032 78 130 1.0 5.0 0.00 0.03 0.00 56 1021.6
20260831173533 78 184 2.0 5.0 0.00 0.03 0.00 56 1021.9
20260831173033 79 92 2.0 6.0 0.00 0.03 0.00 57 1021.9
20260831172531 78 161 2.0 7.0 0.00 0.03 0.00 58 1022.0
20260831172033 78 142 3.0 7.0 0.00 0.03 0.00 59 1022.1
20260831171532 78 197 2.0 7.0 0.00 0.03 0.00 60 1022.0
20260831171031 78 115 2.0 7.0 0.00 0.03 0.00 60 1022.0
20260831170532 78 149 2.0 6.0 0.00 0.03 0.00 61 1021.9
20260831170030 78 180 4.0 6.0 0.00 0.03 0.00 60 1022.2
20260831165529 78 175 2.0 8.0 0.00 0.03 0.00 60 1022.2
20260831165030 78 167 1.0 8.0 0.00 0.03 0.00 61 1022.2
20260831164529 78 186 4.0 8.0 0.00 0.03 0.00 60 1022.2
20260831164029 78 144 3.0 6.0 0.00 0.03 0.00 60 1022.2
20260831163532 78 271 1.0 4.0 0.00 0.03 0.00 60 1022.3
20260831163030 78 276 1.0 6.0 0.00 0.03 0.00 59 1022.5
20260831162533 78 252 2.0 6.0 0.00 0.03 0.00 60 1022.6
20260831162028 78 204 2.0 7.0 0.00 0.03 0.00 60 1022.5
20260831161528 77 259 2.0 7.0 0.00 0.03 0.00 61 1022.5
20260831161029 77 129 2.0 8.0 0.00 0.03 0.00 60 1022.5
20260831160527 77 39 3.0 8.0 0.00 0.03 0.00 59 1022.7
20260831160030 78 65 3.0 7.0 0.00 0.03 0.00 57 1022.8
20260831155526 78 198 2.0 5.0 0.00 0.03 0.00 57 1022.7
20260831155025 78 216 3.0 7.0 0.00 0.03 0.00 57 1022.8
20260831154523 77 200 3.0 7.0 0.00 0.03 0.00 58 1022.6
20260831154024 76 234 0.0 7.0 0.00 0.03 0.00 56 1022.6
20260831153525 76 167 4.0 7.0 0.00 0.03 0.00 57 1022.7
20260831153020 75 167 3.0 6.0 0.00 0.03 0.00 62 1022.7
20260831152519 75 157 1.0 5.0 0.00 0.03 0.00 65 1022.6
20260831152019 74 139 1.0 7.0 0.00 0.03 0.00 67 1022.5
20260831151522 74 67 4.0 7.0 0.00 0.03 0.00 67 1022.6
20260831151023 74 51 1.0 6.0 0.00 0.03 0.00 68 1022.6
20260831150518 74 42 3.0 6.0 0.00 0.03 0.00 67 1022.6
20260831150018 75 33 2.0 6.0 0.00 0.03 0.00 65 1022.7
20260831145521 75 87 0.0 4.0 0.00 0.03 0.00 65 1022.7
20260831145017 75 88 0.0 4.0 0.00 0.03 0.00 67 1022.8
20260831144515 74 84 1.0 4.0 0.00 0.03 0.00 65 1022.7
20260831144014 75 105 1.0 4.0 0.00 0.03 0.00 66 1022.6
20260831143513 75 51 1.0 6.0 0.00 0.03 0.00 67 1022.7
20260831143011 74 94 1.0 7.0 0.00 0.03 0.00 68 1022.6
20260831142510 73 85 2.0 8.0 0.00 0.03 0.00 69 1022.5
20260831142009 74 42 4.0 8.0 0.00 0.03 0.00 68 1022.6
20260831141508 73 20 1.0 7.0 0.00 0.03 0.00 70 1022.6
20260831141008 73 26 2.0 7.0 0.00 0.03 0.00 70 1022.6
20260831140505 74 55 2.0 6.0 0.00 0.03 0.00 70 1022.5
20260831140007 74 91 0.0 2.0 0.00 0.03 0.00 70 1022.5
20260831135503 74 101 0.0 2.0 0.00 0.03 0.00 72 1022.5
20260831135004 73 107 0.0 2.0 0.00 0.03 0.00 73 1022.5
20260831134605 73 105 0.0 1.0 0.00 0.03 0.00 74 1022.4
20260831134059 72 105 0.0 2.0 0.00 0.03 0.00 75 1022.5
20260831133557 71 105 0.0 2.0 0.00 0.03 0.00 75 1022.4
20260831133057 71 105 0.0 3.0 0.00 0.03 0.00 76 1022.5
20260831132554 70 30 0.0 4.0 0.00 0.03 0.00 78 1022.5
20260831132053 70 349 0.0 4.0 0.00 0.03 0.00 79 1022.3
20260831131554 69 335 1.0 4.0 0.00 0.03 0.00 80 1022.3
20260831131052 68 355 1.0 4.0 0.00 0.03 0.00 81 1022.4
20260831130550 68 360 0.0 5.0 0.00 0.03 0.00 82 1022.4
20260831130050 67 303 1.0 5.0 0.00 0.03 0.00 83 1022.5
20260831125546 67 320 1.0 6.0 0.00 0.03 0.00 84 1022.4
20260831125045 67 348 2.0 6.0 0.00 0.03 0.00 85 1022.4
20260831124550 66 330 1.0 5.0 0.00 0.03 0.00 86 1022.4
20260831124047 66 341 1.0 4.0 0.00 0.03 0.00 86 1022.5
20260831123542 65 331 1.0 8.0 0.00 0.03 0.00 87 1022.3
20260831123040 64 355 1.0 8.0 0.00 0.03 0.00 87 1022.4
20260831122544 64 287 2.0 6.0 0.00 0.03 0.00 87 1022.4
20260831122039 64 294 1.0 5.0 0.00 0.03 0.00 88 1022.5
20260831121538 64 340 1.0 8.0 0.00 0.03 0.00 88 1022.5
20260831121036 63 311 2.0 8.0 0.00 0.03 0.00 88 1022.6
20260831120534 63 308 1.0 5.0 0.00 0.03 0.00 88 1022.7
20260831120041 63 307 1.0 8.0 0.00 0.03 0.00 88 1022.8
20260831115534 63 313 1.0 8.0 0.00 0.03 0.00 88 1022.7
20260831115033 63 310 1.0 5.0 0.00 0.03 0.00 89 1022.6
20260831114533 62 309 1.0 8.0 0.00 0.03 0.00 88 1022.4
20260831114032 62 311 1.0 8.0 0.00 0.03 0.00 88 1022.5
20260831113532 62 311 0.0 5.0 0.00 0.03 0.00 88 1022.4
20260831113031 62 19 0.0 5.0 0.00 0.03 0.00 89 1022.4